SCP
0 0 0 0 0 0 0 0 0 0 0 0 0 0 0 0 0 0 0 0 0 0 0 0 0 0 0 0 0 0 0 0 0 0 0 0 0 0 0 0 0 0 0 0 0 0 0 0 0 0 0 0 0 0
0 0 0 0 0 0 0 0 0 0 0 0 0 0 0 0 0 0 0 0 0 0 0 0 0 0 0 0 0 0 0 0 0 0 0 0 0 0 0 0 0 0 0 0 0 0 0 0 0 0 0 0 0 0
0 0 0 0 0 0 0 0 0 0 0 0 0 0 0 0 0 0 0 0 0 0 0 0 0 0 0 0 0 0 0 0 0 0 0 0 0 0 0 0 0 0 0 0 0 0 0 0 0 0 0 0 0 0
0 0 0 0 0 0 0 0 0 0 0 0 0 0 0 0 0 0 0 0 0 0 0 0 0 0 0 0 0 0 0 0 0 0 0 0 0 0 0 0 0 0 0 0 0 0 0 0 0 0 0 0 0 0
0 0 0 0 0 0 0 0 0 0 0 0 0 0 0 0 0 0 0 0 0 0 0 0 0 0 0 0 0 0 0 0 0 0 0 0 0 0 0 0 0 0 0 0 0 0 0 0 0 0 0 0 0 0
0 0 0 0 0 0 0 0 0 0 0 0 0 0 0 0 0 0 0 0 0 0 0 0 0 0 0 0 0 0 0 0 0 0 0 0 0 0 0 0 0 0 0 0 0 0 0 0 0 0 0 0 0 0
0 0 0 0 0 0 0 0 0 0 0 0 0 0 0 0 0 0 0 0 0 0 0 0 0 0 0 0 0 0 0 0 0 0 0 0 0 0 0 0 0 0 0 0 0 0 0 0 0 0 0 0 0 0
0 0 0 0 0 0 0 0 0 0 0 0 0 0 0 0 0 0 0 0 0 0 0 0 0 0 0 0 0 0 0 0 0 0 0 0 0 0 0 0 0 0 0 0 0 0 0 0 0 0 0 0 0 0
0 0 0 0 0 0 0 0 0 0 0 0 0 0 0 0 0 0 0 0 0 0 0 0 0 0 0 0 0 0 0 0 0 0 0 0 0 0 0 0 0 0 0 0 0 0 0 0 0 0 0 0 0 0
0 0 0 0 0 0 0 0 0 0 0 0 0 0 0 0 0 0 0 0 0 0 0 0 0 0 0 0 0 0 0 0 0 0 0 0 0 0 0 0 0 0 0 0 0 0 0 0 0 0 0 0 0 0
0 0 0 0 0 -0 -0 -0 0 0 0 0 0 0 0 0 0 0 0 0 0 0 0 0 0 0 0 0 0 0 0 0 0 0 0 0 0 0 0 0 0 0 0 0 0 0 0 0 0 0 0 0 0 0
0 0 0 -0 -0 0 0 0 -0 0 0 0 0 0 0 0 0 0 0 0 0 0 0 0 0 0 0 0 0 0 0 0 0 0 0 0 0 0 0 0 0 0 0 0 0 0 0 0 0 0 0 0 0 0
0 -0 -0 0 0 0 0 -0 -0 0 0 0 0 0 0 0 0 0 0 0 0 0 0 0 0 0 0 0 0 0 0 0 0 0 0 0 0 0 0 0 0 0 0 0 0 0 0 0 0 0 0 0 0 0
-0 -0 0 0 -0 -0 0 0 0 0 0 0 0 0 0 0 0 0 0 0 0 0 0 0 0 0 0 0 0 0 0 0 0 0 0 0 0 0 0 0 0 0 0 0 0 0 0 0 0 0 0 0 0 0
-0 -0 0 -0 -0 0 -0 -0 0 0 0 0 0 0 0 0 0 0 0 0 0 0 0 0 0 0 0 0 0 0 0 0 0 0 0 0 0 0 0 0 0 0 0 0 0 0 0 0 0 0 0 0 0 0
0 -0 -0 -0 -0 -0 -0 0 0 0 0 0 0 0 0 0 0 0 0 0 0 0 0 0 0 0 0 0 0 0 0 0 0 0 0 0 0 0 0 0 0 0 0 0 0 0 0 0 0 0 0 0 0 -0
-0 0 0 -0 -0 -0 0 0 0 0 0 0 0 0 0 0 0 0 0 0 0 0 0 0 0 0 0 0 0 0 0 0 0 0 0 0 0 0 0 0 0 0 -0 0 0 0 0 0 0 0 0 0 0 0
-0 0 -0 -0 0 0 0 0 0 0 0 0 0 0 0 0 0 0 0 0 0 0 0 0 0 0 0 0 0 0 0 0 0 0 0 0 0 0 0 0 0 0 0 0 0 0 0 0 -0 0 0 0 0 0
0 0 -0 -0 0 0 0 0 0 0 0 0 0 0 0 0 0 0 0 0 0 0 0 0 0 0 0 0 0 0 0 0 0 0 0 0 0 0 0 0 0 0 0 0 0 0 0 0 0 0 0 0 0 0
0 0 0 0 0 0 0 0 0 0 0 0 0 0 0 0 0 0 0 0 0 0 0 0 0 0 0 0 0 0 0 0 0 0 0 0 0 0 0 0 0 0 0 0 0 0 0 0 0 0 0 0 0 0
0 0 0 0 0 0 0 0 0 0 0 0 0 0 0 0 0 0 0 0 0 0 0 0 0 0 0 0 0 0 0 0 0 0 0 0 0 0 0 0 0 0 0 0 0 0 0 0 0 0 0 0 0 0
0 0 0 0 0 0 0 0 0 0 0 0 0 0 0 0 0 0 0 0 0 0 0 0 0 0 0 0 0 0 0 0 0 0 0 0 0 0 0 0 0 0 0 0 0 0 0 0 0 0 0 0 0 0
0 0 0 0 0 0 0 0 0 0 0 0 0 0 0 0 0 0 0 0 0 0 0 0 0 0 0 0 0 0 0 0 0 0 0 0 0 0 0 0 0 0 0 0 0 0 0 0 0 0 0 0 0 0
0 0 0 0 0 0 0 0 0 0 0 0 0 0 0 0 0 0 0 0 0 0 0 0 0 0 0 0 0 0 0 0 0 0 0 0 0 0 0 0 0 0 0 0 0 0 0 0 0 0 0 0 0 0
0 0 0 0 0 0 0 0 0 0 0 0 0 0 0 0 0 0 0 0 0 0 0 0 0 0 0 0 0 0 0 0 0 0 0 0 0 0 0 0 0 0 0 0 0 0 0 0 0 0 0 0 0 0
0 0 0 0 0 0 0 0 0 0 0 0 0 0 0 0 0 0 0 0 0 0 0 0 0 0 0 0 0 0 0 0 0 0 0 0 0 0 0 0 0 0 0 0 0 0 0 0 0 0 0 0 0 0
0 0 0 0 0 0 0 0 0 0 0 0 0 0 0 0 0 0 0 0 0 0 0 0 0 0 0 0 0 0 0 0 0 0 0 0 0 0 0 0 0 0 0 0 0 0 0 0 0 0 0 0 0 0
0 0 0 0 0 0 0 0 0 0 0 0 0 0 0 0 0 0 0 0 0 0 0 0 0 0 0 0 0 0 0 0 0 0 0 0 0 0 0 0 0 0 0 0 0 0 0 0 0 0 0 0 0 0
0 0 0 0 0 0 0 0 0 0 0 0 0 0 0 0 0 0 0 0 0 0 0 0 0 0 0 0 0 0 0 0 0 0 0 0 0 0 0 0 0 0 0 0 0 0 0 0 0 0 0 0 0 0
0 0 0 0 0 0 0 0 0 0 0 0 0 0 0 0 0 0 0 0 0 0 0 0 0 0 0 0 0 0 0 0 0 0 0 0 0 0 0 0 0 0 0 0 0 0 0 0 0 0 0 0 0 0
0 0 0 0 0 0 0 0 0 0 0 0 0 0 0 0 0 0 0 0 0 0 0 0 0 0 0 0 0 0 0 0 0 0 0 0 0 0 0 0 0 0 0 0 0 0 0 0 0 0 0 0 0 0
0 0 0 0 0 0 0 0 0 0 0 0 0 0 0 0 0 0 0 0 0 0 0 0 0 0 0 0 0 0 0 0 0 0 0 0 0 0 0 0 0 0 0 0 0 0 0 0 0 0 0 0 0 0
0 0 0 0 0 0 0 0 0 0 0 0 0 0 0 0 0 0 0 0 0 0 0 0 0 0 0 0 0 0 0 0 0 0 0 0 0 0 0 0 0 0 0 0 0 0 0 0 0 0 0 0 0 0
Wind_Speed_500mb
73 66 63 59 55 51 45 42 39 38 35 31 35 38 38 44 39 28 51 40 39 16 13 19 20 16 13 9 7 13 9 0 6 6 5 6 6 12 6 9 13 17 12 10 5 4 22 11 8 10 15 27 32 31
73 67 62 60 57 51 47 43 39 38 36 34 34 40 42 44 41 51 35 53 43 20 8 32 29 19 12 13 17 14 5 5 4 5 2 4 3 1 7 6 3 6 12 9 15 10 6 6 32 40 39 45 34 30
70 68 63 59 56 50 49 45 42 39 36 35 38 39 43 49 43 49 45 51 52 35 19 29 33 38 39 25 24 11 8 8 8 9 5 2 1 2 7 8 5 7 7 6 6 3 19 47 43 40 36 30 22 24
73 66 65 61 56 53 50 46 43 40 37 39 42 42 44 51 48 51 51 37 69 23 14 15 39 52 34 36 39 26 9 14 15 11 7 2 2 5 3 2 3 5 13 9 6 13 33 21 25 22 19 19 19 26
72 70 66 61 57 55 53 50 44 40 38 39 41 44 46 50 52 53 58 46 44 39 14 8 23 36 36 57 40 35 29 25 12 7 5 5 6 2 4 3 6 9 9 7 7 14 6 23 9 8 16 16 25 35
71 69 67 63 60 58 54 52 49 46 40 40 41 43 47 49 52 49 25 52 46 82 16 4 11 32 41 36 45 52 46 32 20 12 8 10 11 9 2 6 17 32 31 26 4 8 15 25 28 24 28 37 43 53
68 66 61 59 61 61 56 54 54 50 46 40 41 43 45 44 52 57 12 18 53 54 22 6 3 17 40 39 30 29 34 26 21 10 11 9 13 21 4 7 55 29 24 25 23 24 22 22 25 41 57 61 65 72
64 59 59 60 60 59 59 58 54 54 49 46 44 46 48 45 43 53 69 42 27 59 16 8 4 9 35 17 14 20 20 25 21 17 9 11 16 15 4 36 85 58 57 62 66 64 55 62 71 75 68 67 73 65
56 57 56 56 59 59 58 60 60 57 53 50 46 49 46 52 42 64 60 60 44 35 19 11 15 9 35 12 14 14 14 4 16 8 11 12 4 11 25 52 78 90 56 53 55 62 71 75 75 72 68 62 61 62
55 52 55 58 58 60 64 60 62 59 56 54 54 40 29 40 49 32 45 55 40 34 17 5 19 8 24 13 5 14 10 7 5 10 13 9 14 59 71 87 99 90 41 41 49 63 74 80 74 62 57 49 52 59
50 50 52 55 57 60 63 65 69 68 61 61 45 31 23 45 48 33 10 9 11 6 16 16 26 14 22 8 7 11 6 4 5 10 14 5 7 41 82 88 98 102 72 84 89 79 77 72 65 65 55 58 53 52
45 48 51 55 58 68 73 79 84 78 68 50 50 27 49 21 11 10 6 4 5 13 13 11 16 22 21 15 10 9 7 4 12 7 6 7 12 54 66 73 84 93 80 79 75 72 70 65 57 55 54 49 43 45
42 48 55 62 68 79 81 91 70 67 94 73 35 15 13 10 7 13 12 4 5 14 23 23 6 14 13 10 13 7 9 11 15 4 8 9 22 41 52 57 65 67 68 67 61 54 51 49 44 41 38 34 30 30
41 47 53 61 73 54 58 76 68 94 85 16 14 7 5 5 4 9 13 13 16 27 53 51 17 9 10 7 7 10 9 6 2 4 11 7 32 40 49 35 36 38 42 47 47 46 44 38 31 26 23 21 26 34
38 45 53 60 61 47 60 80 107 98 38 14 15 9 8 9 7 19 22 36 32 66 69 24 17 11 3 7 6 7 3 10 10 11 9 34 53 52 41 31 31 34 37 41 30 25 20 17 17 18 23 24 21 22
31 45 59 30 74 77 91 94 73 60 12 12 11 10 1 7 3 10 12 36 54 63 52 19 8 8 7 9 10 14 12 13 8 8 34 39 28 20 20 19 14 16 13 6 13 16 14 12 17 20 18 14 19 22
26 26 16 93 100 99 91 81 41 11 10 12 5 14 17 13 22 35 42 43 80 56 7 8 11 17 6 6 2 9 11 8 22 36 32 23 31 30 22 20 14 11 20 16 11 27 34 28 22 22 19 19 19 16
17 15 89 115 103 88 61 21 12 10 6 8 7 40 27 33 47 43 32 74 50 30 32 12 24 6 12 14 7 8 32 53 51 46 42 34 30 35 30 28 21 24 29 31 35 34 33 32 31 25 24 19 15 15
9 5 86 105 89 55 11 7 6 7 5 7 15 37 25 27 37 53 57 77 37 47 39 14 9 7 8 9 13 32 36 39 39 40 46 53 45 36 40 35 34 36 37 38 38 36 34 35 35 31 26 22 22 21
18 8 50 68 60 22 11 8 10 13 5 10 19 23 19 20 34 41 59 51 37 26 5 4 9 17 28 59 48 45 44 30 27 33 38 45 44 35 35 36 44 44 45 42 43 44 41 41 40 36 32 31 31 29
24 16 18 69 25 18 14 12 10 10 20 11 27 22 13 24 20 19 21 38 10 10 5 23 54 61 49 39 35 39 47 35 36 37 43 47 43 36 44 48 47 50 56 55 55 49 45 48 39 33 34 35 35 37
8 28 14 17 12 9 14 9 16 15 10 16 19 13 13 4 11 19 34 12 13 21 31 56 57 59 60 66 67 66 66 60 55 52 53 54 59 65 67 61 61 66 63 61 61 57 48 43 35 35 38 34 34 39
17 31 15 12 8 10 8 13 8 8 8 4 5 7 4 4 9 35 3 14 22 36 49 62 61 64 70 68 69 76 78 70 60 59 60 62 65 68 69 65 59 64 70 69 66 66 51 37 28 31 37 38 35 37
21 10 9 8 11 5 5 7 8 10 7 6 6 5 1 5 19 3 6 11 37 41 52 61 62 65 71 74 80 87 81 65 66 69 70 69 71 72 68 68 71 73 79 78 76 68 54 40 33 32 34 34 34 42
12 11 9 10 8 9 6 5 6 8 4 1 8 3 2 8 5 3 7 9 34 50 60 64 68 67 67 73 73 78 75 69 67 64 65 60 55 54 59 61 65 67 65 68 73 69 54 51 45 43 42 43 44 47
10 9 6 5 1 8 9 9 9 11 7 5 6 3 6 6 6 11 7 31 55 51 48 43 48 56 59 60 64 62 57 51 43 46 51 45 43 43 50 51 54 60 51 50 53 59 60 56 56 54 50 47 47 48
8 4 11 8 7 16 9 7 7 7 8 12 8 8 7 9 13 9 11 20 23 27 30 35 39 43 48 49 43 39 39 39 36 37 37 38 37 40 43 46 50 52 45 43 41 41 42 41 44 43 43 44 44 45
7 13 8 6 6 3 10 6 9 11 8 13 17 11 19 19 11 4 4 7 13 20 24 23 24 26 27 28 28 26 25 25 27 31 34 39 38 36 39 39 39 40 37 34 32 34 36 38 39 39 41 41 41 41
10 15 12 9 9 9 6 4 4 3 2 9 7 7 7 3 3 3 3 6 8 8 10 11 14 18 19 21 21 21 23 26 27 31 35 33 26 27 26 31 35 34 30 29 28 30 35 36 38 38 38 38 37 37
12 16 6 3 3 1 5 7 5 7 4 7 5 4 5 3 2 3 5 6 7 8 8 10 8 7 10 13 15 14 12 13 14 19 22 22 24 24 22 25 28 29 28 29 29 31 31 31 35 36 37 35 30 30
13 9 3 2 0 2 10 12 10 10 8 7 13 10 5 1 3 5 5 6 7 7 7 7 8 9 8 8 9 10 11 13 14 13 15 20 21 19 20 22 23 25 25 24 23 23 25 29 31 30 28 26 27 25
12 7 3 1 3 7 6 9 4 4 6 6 6 8 5 7 7 0 5 8 10 10 11 11 13 14 14 14 13 12 12 15 15 17 19 20 22 24 25 28 30 32 31 28 27 27 28 29 29 27 26 26 27 28
6 7 5 7 9 10 15 20 8 9 4 3 1 2 1 2 4 2 8 10 12 13 12 11 10 10 11 12 13 14 16 19 23 24 23 25 27 28 29 32 33 32 32 33 34 35 35 36 36 36 37 38 41 42
Wind_Direction_500mb
192 196 197 197 201 201 202 209 207 214 218 222 225 222 227 244 239 210 213 216 205 190 211 212 208 181 175 179 134 155 97 156 136 147 184 198 177 217 139 172 174 177 179 197 143 126 260 177 119 194 141 109 104 94
192 191 193 195 196 199 204 207 208 215 221 227 228 231 228 226 239 233 223 208 204 211 233 221 217 200 178 206 170 164 119 115 115 116 90 92 160 107 159 218 222 208 183 178 182 211 51 141 122 120 114 108 99 86
192 193 195 196 196 196 203 206 212 217 221 226 235 236 234 226 228 239 236 205 193 206 232 233 218 214 218 200 184 155 157 135 125 86 101 159 181 106 161 232 155 256 167 167 109 181 140 121 116 107 101 97 76 47
191 192 196 198 198 201 207 210 213 218 224 233 237 237 235 229 223 228 231 221 200 177 189 234 224 223 206 210 214 219 191 165 137 125 106 78 171 183 229 264 238 213 146 168 260 83 132 139 116 95 76 47 29 9
190 193 197 200 202 206 210 214 215 221 230 236 240 241 238 234 224 225 230 231 227 191 180 194 201 208 213 213 208 209 214 215 189 147 108 211 215 108 331 28 261 188 190 177 239 151 143 180 80 46 357 350 341 344
191 196 199 201 206 210 213 218 222 227 232 238 243 242 239 232 223 221 216 221 215 200 186 157 199 196 201 200 208 219 225 216 200 182 185 216 181 168 175 225 241 236 243 248 176 160 322 306 310 306 301 307 308 314
196 200 202 205 211 214 217 221 224 228 232 242 240 242 237 232 224 216 193 204 203 203 184 135 219 178 191 189 191 202 205 203 198 180 224 221 188 192 144 225 256 247 258 243 252 289 289 275 272 285 290 295 299 301
200 203 206 210 214 217 220 224 227 229 232 239 242 238 235 227 231 228 224 231 185 182 187 140 140 153 180 166 140 170 175 195 198 195 217 196 160 195 236 245 263 262 260 257 259 268 272 275 278 279 281 282 292 289
202 206 210 215 219 224 225 228 230 233 233 237 239 238 228 225 218 226 225 217 217 198 165 159 152 200 170 131 131 148 160 133 180 200 226 146 192 208 213 238 256 261 246 253 256 257 257 259 263 270 275 279 281 284
207 213 219 223 228 231 229 231 235 237 232 237 233 221 202 208 212 200 180 182 178 199 192 151 158 146 153 147 137 124 175 189 173 234 166 191 231 236 239 244 252 261 244 252 253 254 256 259 263 270 280 277 279 281
210 220 227 230 235 234 236 236 239 236 241 219 210 209 176 179 168 184 200 161 132 142 183 160 163 136 173 145 150 187 182 177 152 246 169 220 256 237 244 246 251 257 254 261 264 260 265 265 273 277 276 279 280 281
220 228 235 243 243 249 246 246 237 227 216 194 196 149 148 172 169 137 126 106 208 173 176 157 153 129 145 136 107 175 161 96 226 153 175 224 252 258 259 257 260 259 256 259 264 268 270 270 269 266 267 267 274 282
231 241 247 254 255 250 247 242 247 219 207 174 176 148 166 193 140 143 151 185 193 157 160 155 142 122 99 121 91 116 160 224 123 141 214 223 253 263 260 259 256 258 258 261 261 260 259 260 255 253 259 267 274 277
249 258 262 258 266 263 221 201 189 173 153 120 127 158 220 94 188 187 162 174 180 162 154 146 106 115 125 87 135 124 230 83 134 153 224 232 223 260 263 267 263 266 258 259 254 249 249 246 251 254 263 273 278 288
271 272 270 267 274 203 192 178 154 154 140 109 136 165 196 143 141 182 152 133 140 157 143 114 74 103 52 109 171 107 109 225 213 203 214 229 247 256 267 264 278 287 284 272 247 233 237 240 250 257 255 258 270 289
286 289 280 216 161 146 135 137 128 130 90 138 127 118 134 84 358 105 187 128 145 147 139 112 109 86 207 162 159 205 152 207 227 215 232 246 252 247 240 251 286 301 282 235 221 216 226 240 247 247 256 286 299 307
303 300 192 156 154 151 145 137 121 79 123 139 174 180 132 157 159 169 164 148 153 143 147 118 118 194 128 81 229 186 195 209 212 234 252 250 246 230 228 238 234 214 208 208 229 254 246 229 239 258 283 297 300 305
317 65 138 135 140 140 126 121 111 128 116 137 140 165 186 158 153 154 158 157 152 173 155 177 139 134 160 171 239 227 215 236 243 253 262 252 273 252 239 243 247 238 231 243 255 257 257 251 255 267 281 272 273 290
293 288 154 152 143 133 97 92 85 93 71 122 162 168 147 140 162 172 164 163 179 166 139 145 100 160 210 213 200 221 228 239 249 260 261 265 269 276 250 254 261 266 271 272 267 266 264 257 259 265 274 265 276 302
269 216 161 157 152 122 95 89 104 98 145 148 146 142 121 130 137 156 163 166 152 150 103 133 192 209 204 220 227 234 241 247 249 251 260 270 279 283 273 271 273 285 287 277 273 267 261 265 265 269 273 271 285 309
281 238 165 159 104 83 101 132 116 112 131 113 137 137 97 135 133 147 153 162 169 190 205 216 226 229 233 241 248 248 257 249 246 254 266 270 263 259 281 283 276 278 279 279 282 277 262 262 266 262 262 271 288 300
253 193 180 58 82 83 80 71 115 104 98 113 126 126 126 120 135 150 153 181 216 218 226 231 239 241 241 245 251 254 260 265 267 264 264 264 267 272 275 279 274 273 276 278 284 276 264 264 261 256 261 269 279 294
130 140 86 74 79 65 88 110 85 48 113 178 106 67 22 68 129 143 162 223 222 226 235 239 242 246 249 255 260 263 263 261 265 269 268 268 273 275 274 272 266 268 270 272 274 280 268 260 250 260 266 270 282 298
97 80 78 73 79 77 115 63 88 88 79 50 78 90 179 148 157 60 229 246 235 234 234 240 246 252 255 256 259 263 265 267 273 275 277 276 275 273 272 272 269 264 262 266 269 275 270 252 246 254 263 270 288 298
80 24 76 64 94 96 64 47 48 58 117 208 89 24 251 135 110 195 234 267 242 248 255 258 254 255 255 258 262 268 273 273 273 277 278 275 276 276 273 272 268 267 267 263 262 262 268 266 265 269 271 277 284 291
80 358 58 166 65 111 169 122 167 175 134 114 196 131 139 110 127 234 229 234 240 250 257 264 272 271 270 272 271 269 269 272 275 272 277 279 277 275 278 280 278 272 274 278 276 269 268 262 259 261 266 271 277 286
98 43 22 62 89 121 80 60 132 118 150 158 174 164 152 171 221 244 226 229 240 249 258 258 261 257 258 260 265 265 265 263 260 266 274 272 274 276 279 277 276 279 281 280 272 264 260 254 251 254 259 265 275 282
61 28 126 340 103 98 138 137 146 180 184 161 133 175 178 191 217 225 229 261 270 267 265 262 263 262 261 262 266 266 259 264 268 269 268 268 273 271 268 273 275 274 272 270 262 250 247 245 246 249 254 261 268 274
31 358 355 22 12 26 52 128 199 47 154 187 165 205 226 189 208 220 247 282 280 269 278 277 272 268 265 266 270 277 281 279 272 260 260 263 266 261 267 268 268 269 266 263 259 254 250 251 255 258 260 264 267 275
6 3 6 34 40 296 353 358 355 339 283 239 273 278 231 233 234 271 312 307 297 277 264 261 264 276 280 278 265 260 269 271 271 269 271 276 272 272 272 269 267 263 259 258 260 259 259 258 257 256 259 263 264 266
345 348 340 360 47 328 325 320 307 290 271 258 241 246 235 260 304 311 311 299 292 290 290 288 284 286 294 285 278 276 269 293 296 290 281 278 275 270 267 268 270 269 266 261 256 255 255 255 255 256 257 257 262 266
9 48 22 53 278 334 342 348 278 243 228 232 231 219 219 193 182 112 358 338 318 312 303 304 302 302 303 305 304 300 287 287 292 290 288 287 286 286 283 276 268 266 265 261 254 246 243 248 253 258 258 256 260 269
351 360 3 328 352 359 352 347 15 342 257 295 286 331 219 196 168 68 38 40 44 34 22 5 348 335 327 319 312 306 300 299 299 297 292 290 289 288 286 281 276 272 267 263 260 257 260 259 254 256 260 262 266 273
Wind_Speed_850mb
73 66 63 59 55 51 45 42 39 38 35 31 35 38 38 44 39 28 51 40 39 16 13 19 20 16 13 9 7 13 9 0 6 6 5 6 6 12 6 9 13 17 12 10 5 4 22 11 8 10 15 27 32 31
73 67 62 60 57 51 47 43 39 38 36 34 34 40 42 44 41 51 35 53 43 20 8 32 29 19 12 13 17 14 5 5 4 5 2 4 3 1 7 6 3 6 12 9 15 10 6 6 32 40 39 45 34 30
70 68 63 59 56 50 49 45 42 39 36 35 38 39 43 49 43 49 45 51 52 35 19 29 33 38 39 25 24 11 8 8 8 9 5 2 1 2 7 8 5 7 7 6 6 3 19 47 43 40 36 30 22 24
73 66 65 61 56 53 50 46 43 40 37 39 42 42 44 51 48 51 51 37 69 23 14 15 39 52 34 36 39 26 9 14 15 11 7 2 2 5 3 2 3 5 13 9 6 13 33 21 25 22 19 19 19 26
72 70 66 61 57 55 53 50 44 40 38 39 41 44 46 50 52 53 58 46 44 39 14 8 23 36 36 57 40 35 29 25 12 7 5 5 6 2 4 3 6 9 9 7 7 14 6 23 9 8 16 16 25 35
71 69 67 63 60 58 54 52 49 46 40 40 41 43 47 49 52 49 25 52 46 82 16 4 11 32 41 36 45 52 46 32 20 12 8 10 11 9 2 6 17 32 31 26 4 8 15 25 28 24 28 37 43 53
68 66 61 59 61 61 56 54 54 50 46 40 41 43 45 44 52 57 12 18 53 54 22 6 3 17 40 39 30 29 34 26 21 10 11 9 13 21 4 7 55 29 24 25 23 24 22 22 25 41 57 61 65 72
64 59 59 60 60 59 59 58 54 54 49 46 44 46 48 45 43 53 69 42 27 59 16 8 4 9 35 17 14 20 20 25 21 17 9 11 16 15 4 36 85 58 57 62 66 64 55 62 71 75 68 67 73 65
56 57 56 56 59 59 58 60 60 57 53 50 46 49 46 52 42 64 60 60 44 35 19 11 15 9 35 12 14 14 14 4 16 8 11 12 4 11 25 52 78 90 56 53 55 62 71 75 75 72 68 62 61 62
55 52 55 58 58 60 64 60 62 59 56 54 54 40 29 40 49 32 45 55 40 34 17 5 19 8 24 13 5 14 10 7 5 10 13 9 14 59 71 87 99 90 41 41 49 63 74 80 74 62 57 49 52 59
50 50 52 55 57 60 63 65 69 68 61 61 45 31 23 45 48 33 10 9 11 6 16 16 26 14 22 8 7 11 6 4 5 10 14 5 7 41 82 88 98 102 72 84 89 79 77 72 65 65 55 58 53 52
45 48 51 55 58 68 73 79 84 78 68 50 50 27 49 21 11 10 6 4 5 13 13 11 16 22 21 15 10 9 7 4 12 7 6 7 12 54 66 73 84 93 80 79 75 72 70 65 57 55 54 49 43 45
42 48 55 62 68 79 81 91 70 67 94 73 35 15 13 10 7 13 12 4 5 14 23 23 6 14 13 10 13 7 9 11 15 4 8 9 22 41 52 57 65 67 68 67 61 54 51 49 44 41 38 34 30 30
41 47 53 61 73 54 58 76 68 94 85 16 14 7 5 5 4 9 13 13 16 27 53 51 17 9 10 7 7 10 9 6 2 4 11 7 32 40 49 35 36 38 42 47 47 46 44 38 31 26 23 21 26 34
38 45 53 60 61 47 60 80 107 98 38 14 15 9 8 9 7 19 22 36 32 66 69 24 17 11 3 7 6 7 3 10 10 11 9 34 53 52 41 31 31 34 37 41 30 25 20 17 17 18 23 24 21 22
31 45 59 30 74 77 91 94 73 60 12 12 11 10 1 7 3 10 12 36 54 63 52 19 8 8 7 9 10 14 12 13 8 8 34 39 28 20 20 19 14 16 13 6 13 16 14 12 17 20 18 14 19 22
26 26 16 93 100 99 91 81 41 11 10 12 5 14 17 13 22 35 42 43 80 56 7 8 11 17 6 6 2 9 11 8 22 36 32 23 31 30 22 20 14 11 20 16 11 27 34 28 22 22 19 19 19 16
17 15 89 115 103 88 61 21 12 10 6 8 7 40 27 33 47 43 32 74 50 30 32 12 24 6 12 14 7 8 32 53 51 46 42 34 30 35 30 28 21 24 29 31 35 34 33 32 31 25 24 19 15 15
9 5 86 105 89 55 11 7 6 7 5 7 15 37 25 27 37 53 57 77 37 47 39 14 9 7 8 9 13 32 36 39 39 40 46 53 45 36 40 35 34 36 37 38 38 36 34 35 35 31 26 22 22 21
18 8 50 68 60 22 11 8 10 13 5 10 19 23 19 20 34 41 59 51 37 26 5 4 9 17 28 59 48 45 44 30 27 33 38 45 44 35 35 36 44 44 45 42 43 44 41 41 40 36 32 31 31 29
24 16 18 69 25 18 14 12 10 10 20 11 27 22 13 24 20 19 21 38 10 10 5 23 54 61 49 39 35 39 47 35 36 37 43 47 43 36 44 48 47 50 56 55 55 49 45 48 39 33 34 35 35 37
8 28 14 17 12 9 14 9 16 15 10 16 19 13 13 4 11 19 34 12 13 21 31 56 57 59 60 66 67 66 66 60 55 52 53 54 59 65 67 61 61 66 63 61 61 57 48 43 35 35 38 34 34 39
17 31 15 12 8 10 8 13 8 8 8 4 5 7 4 4 9 35 3 14 22 36 49 62 61 64 70 68 69 76 78 70 60 59 60 62 65 68 69 65 59 64 70 69 66 66 51 37 28 31 37 38 35 37
21 10 9 8 11 5 5 7 8 10 7 6 6 5 1 5 19 3 6 11 37 41 52 61 62 65 71 74 80 87 81 65 66 69 70 69 71 72 68 68 71 73 79 78 76 68 54 40 33 32 34 34 34 42
12 11 9 10 8 9 6 5 6 8 4 1 8 3 2 8 5 3 7 9 34 50 60 64 68 67 67 73 73 78 75 69 67 64 65 60 55 54 59 61 65 67 65 68 73 69 54 51 45 43 42 43 44 47
10 9 6 5 1 8 9 9 9 11 7 5 6 3 6 6 6 11 7 31 55 51 48 43 48 56 59 60 64 62 57 51 43 46 51 45 43 43 50 51 54 60 51 50 53 59 60 56 56 54 50 47 47 48
8 4 11 8 7 16 9 7 7 7 8 12 8 8 7 9 13 9 11 20 23 27 30 35 39 43 48 49 43 39 39 39 36 37 37 38 37 40 43 46 50 52 45 43 41 41 42 41 44 43 43 44 44 45
7 13 8 6 6 3 10 6 9 11 8 13 17 11 19 19 11 4 4 7 13 20 24 23 24 26 27 28 28 26 25 25 27 31 34 39 38 36 39 39 39 40 37 34 32 34 36 38 39 39 41 41 41 41
10 15 12 9 9 9 6 4 4 3 2 9 7 7 7 3 3 3 3 6 8 8 10 11 14 18 19 21 21 21 23 26 27 31 35 33 26 27 26 31 35 34 30 29 28 30 35 36 38 38 38 38 37 37
12 16 6 3 3 1 5 7 5 7 4 7 5 4 5 3 2 3 5 6 7 8 8 10 8 7 10 13 15 14 12 13 14 19 22 22 24 24 22 25 28 29 28 29 29 31 31 31 35 36 37 35 30 30
13 9 3 2 0 2 10 12 10 10 8 7 13 10 5 1 3 5 5 6 7 7 7 7 8 9 8 8 9 10 11 13 14 13 15 20 21 19 20 22 23 25 25 24 23 23 25 29 31 30 28 26 27 25
12 7 3 1 3 7 6 9 4 4 6 6 6 8 5 7 7 0 5 8 10 10 11 11 13 14 14 14 13 12 12 15 15 17 19 20 22 24 25 28 30 32 31 28 27 27 28 29 29 27 26 26 27 28
6 7 5 7 9 10 15 20 8 9 4 3 1 2 1 2 4 2 8 10 12 13 12 11 10 10 11 12 13 14 16 19 23 24 23 25 27 28 29 32 33 32 32 33 34 35 35 36 36 36 37 38 41 42
Wind_Direction_850mb
192 196 197 197 201 201 202 209 207 214 218 222 225 222 227 244 239 210 213 216 205 190 211 212 208 181 175 179 134 155 97 156 136 147 184 198 177 217 139 172 174 177 179 197 143 126 260 177 119 194 141 109 104 94
192 191 193 195 196 199 204 207 208 215 221 227 228 231 228 226 239 233 223 208 204 211 233 221 217 200 178 206 170 164 119 115 115 116 90 92 160 107 159 218 222 208 183 178 182 211 51 141 122 120 114 108 99 86
192 193 195 196 196 196 203 206 212 217 221 226 235 236 234 226 228 239 236 205 193 206 232 233 218 214 218 200 184 155 157 135 125 86 101 159 181 106 161 232 155 256 167 167 109 181 140 121 116 107 101 97 76 47
191 192 196 198 198 201 207 210 213 218 224 233 237 237 235 229 223 228 231 221 200 177 189 234 224 223 206 210 214 219 191 165 137 125 106 78 171 183 229 264 238 213 146 168 260 83 132 139 116 95 76 47 29 9
190 193 197 200 202 206 210 214 215 221 230 236 240 241 238 234 224 225 230 231 227 191 180 194 201 208 213 213 208 209 214 215 189 147 108 211 215 108 331 28 261 188 190 177 239 151 143 180 80 46 357 350 341 344
191 196 199 201 206 210 213 218 222 227 232 238 243 242 239 232 223 221 216 221 215 200 186 157 199 196 201 200 208 219 225 216 200 182 185 216 181 168 175 225 241 236 243 248 176 160 322 306 310 306 301 307 308 314
196 200 202 205 211 214 217 221 224 228 232 242 240 242 237 232 224 216 193 204 203 203 184 135 219 178 191 189 191 202 205 203 198 180 224 221 188 192 144 225 256 247 258 243 252 289 289 275 272 285 290 295 299 301
200 203 206 210 214 217 220 224 227 229 232 239 242 238 235 227 231 228 224 231 185 182 187 140 140 153 180 166 140 170 175 195 198 195 217 196 160 195 236 245 263 262 260 257 259 268 272 275 278 279 281 282 292 289
202 206 210 215 219 224 225 228 230 233 233 237 239 238 228 225 218 226 225 217 217 198 165 159 152 200 170 131 131 148 160 133 180 200 226 146 192 208 213 238 256 261 246 253 256 257 257 259 263 270 275 279 281 284
207 213 219 223 228 231 229 231 235 237 232 237 233 221 202 208 212 200 180 182 178 199 192 151 158 146 153 147 137 124 175 189 173 234 166 191 231 236 239 244 252 261 244 252 253 254 256 259 263 270 280 277 279 281
210 220 227 230 235 234 236 236 239 236 241 219 210 209 176 179 168 184 200 161 132 142 183 160 163 136 173 145 150 187 182 177 152 246 169 220 256 237 244 246 251 257 254 261 264 260 265 265 273 277 276 279 280 281
220 228 235 243 243 249 246 246 237 227 216 194 196 149 148 172 169 137 126 106 208 173 176 157 153 129 145 136 107 175 161 96 226 153 175 224 252 258 259 257 260 259 256 259 264 268 270 270 269 266 267 267 274 282
231 241 247 254 255 250 247 242 247 219 207 174 176 148 166 193 140 143 151 185 193 157 160 155 142 122 99 121 91 116 160 224 123 141 214 223 253 263 260 259 256 258 258 261 261 260 259 260 255 253 259 267 274 277
249 258 262 258 266 263 221 201 189 173 153 120 127 158 220 94 188 187 162 174 180 162 154 146 106 115 125 87 135 124 230 83 134 153 224 232 223 260 263 267 263 266 258 259 254 249 249 246 251 254 263 273 278 288
271 272 270 267 274 203 192 178 154 154 140 109 136 165 196 143 141 182 152 133 140 157 143 114 74 103 52 109 171 107 109 225 213 203 214 229 247 256 267 264 278 287 284 272 247 233 237 240 250 257 255 258 270 289
286 289 280 216 161 146 135 137 128 130 90 138 127 118 134 84 358 105 187 128 145 147 139 112 109 86 207 162 159 205 152 207 227 215 232 246 252 247 240 251 286 301 282 235 221 216 226 240 247 247 256 286 299 307
303 300 192 156 154 151 145 137 121 79 123 139 174 180 132 157 159 169 164 148 153 143 147 118 118 194 128 81 229 186 195 209 212 234 252 250 246 230 228 238 234 214 208 208 229 254 246 229 239 258 283 297 300 305
317 65 138 135 140 140 126 121 111 128 116 137 140 165 186 158 153 154 158 157 152 173 155 177 139 134 160 171 239 227 215 236 243 253 262 252 273 252 239 243 247 238 231 243 255 257 257 251 255 267 281 272 273 290
293 288 154 152 143 133 97 92 85 93 71 122 162 168 147 140 162 172 164 163 179 166 139 145 100 160 210 213 200 221 228 239 249 260 261 265 269 276 250 254 261 266 271 272 267 266 264 257 259 265 274 265 276 302
269 216 161 157 152 122 95 89 104 98 145 148 146 142 121 130 137 156 163 166 152 150 103 133 192 209 204 220 227 234 241 247 249 251 260 270 279 283 273 271 273 285 287 277 273 267 261 265 265 269 273 271 285 309
281 238 165 159 104 83 101 132 116 112 131 113 137 137 97 135 133 147 153 162 169 190 205 216 226 229 233 241 248 248 257 249 246 254 266 270 263 259 281 283 276 278 279 279 282 277 262 262 266 262 262 271 288 300
253 193 180 58 82 83 80 71 115 104 98 113 126 126 126 120 135 150 153 181 216 218 226 231 239 241 241 245 251 254 260 265 267 264 264 264 267 272 275 279 274 273 276 278 284 276 264 264 261 256 261 269 279 294
130 140 86 74 79 65 88 110 85 48 113 178 106 67 22 68 129 143 162 223 222 226 235 239 242 246 249 255 260 263 263 261 265 269 268 268 273 275 274 272 266 268 270 272 274 280 268 260 250 260 266 270 282 298
97 80 78 73 79 77 115 63 88 88 79 50 78 90 179 148 157 60 229 246 235 234 234 240 246 252 255 256 259 263 265 267 273 275 277 276 275 273 272 272 269 264 262 266 269 275 270 252 246 254 263 270 288 298
80 24 76 64 94 96 64 47 48 58 117 208 89 24 251 135 110 195 234 267 242 248 255 258 254 255 255 258 262 268 273 273 273 277 278 275 276 276 273 272 268 267 267 263 262 262 268 266 265 269 271 277 284 291
80 358 58 166 65 111 169 122 167 175 134 114 196 131 139 110 127 234 229 234 240 250 257 264 272 271 270 272 271 269 269 272 275 272 277 279 277 275 278 280 278 272 274 278 276 269 268 262 259 261 266 271 277 286
98 43 22 62 89 121 80 60 132 118 150 158 174 164 152 171 221 244 226 229 240 249 258 258 261 257 258 260 265 265 265 263 260 266 274 272 274 276 279 277 276 279 281 280 272 264 260 254 251 254 259 265 275 282
61 28 126 340 103 98 138 137 146 180 184 161 133 175 178 191 217 225 229 261 270 267 265 262 263 262 261 262 266 266 259 264 268 269 268 268 273 271 268 273 275 274 272 270 262 250 247 245 246 249 254 261 268 274
31 358 355 22 12 26 52 128 199 47 154 187 165 205 226 189 208 220 247 282 280 269 278 277 272 268 265 266 270 277 281 279 272 260 260 263 266 261 267 268 268 269 266 263 259 254 250 251 255 258 260 264 267 275
6 3 6 34 40 296 353 358 355 339 283 239 273 278 231 233 234 271 312 307 297 277 264 261 264 276 280 278 265 260 269 271 271 269 271 276 272 272 272 269 267 263 259 258 260 259 259 258 257 256 259 263 264 266
345 348 340 360 47 328 325 320 307 290 271 258 241 246 235 260 304 311 311 299 292 290 290 288 284 286 294 285 278 276 269 293 296 290 281 278 275 270 267 268 270 269 266 261 256 255 255 255 255 256 257 257 262 266
9 48 22 53 278 334 342 348 278 243 228 232 231 219 219 193 182 112 358 338 318 312 303 304 302 302 303 305 304 300 287 287 292 290 288 287 286 286 283 276 268 266 265 261 254 246 243 248 253 258 258 256 260 269
351 360 3 328 352 359 352 347 15 342 257 295 286 331 219 196 168 68 38 40 44 34 22 5 348 335 327 319 312 306 300 299 299 297 292 290 289 288 286 281 276 272 267 263 260 257 260 259 254 256 260 262 266 273